Regional Weather Roundup
Issued by NWS

Home | Current Version | Previous Version | Text Only | Print | Product List | Glossary Off
Versions: 1 2 3 4 5 6 7 8 9 10 11 12 13 14 15 16 17 18 19 20 21 22 23 24 25 26 27 28 29 30 31 32 33 34 35 36 37 38 39 40 41 42 43 44 45 46 47 48 49 50

000
ASUS43 KFSD 062010
RWRSD

WEATHER ROUNDUP FOR SOUTH DAKOTA
NATIONAL WEATHER SERVICE SIOUX FALLS SD
300 PM CDT MON JUL 06 2015

NOTE: "FAIR" INDICATES FEW OR NO CLOUDS BELOW 12,000 FEET WITH NO
SIGNIFICANT WEATHER AND/OR OBSTRUCTIONS TO VISIBILITY.


SDZ001>005-009-010-012>017-062100-
NORTHWEST AND NORTH CENTRAL SOUTH DAKOTA

CITY           SKY/WX    TMP DP  RH WIND       PRES   REMARKS
BUFFALO          N/A     69  50  50 NW8       30.16S
FAITH            N/A     71  51  49 N10       30.19S
MOBRIDGE       PTSUNNY   73  53  49 N12       30.13R
$$

SDZ012>016-024>037-041>051-057-063-072>074-062100-
SOUTHWEST AND SOUTH CENTRAL SOUTH DAKOTA

CITY           SKY/WX    TMP DP  RH WIND       PRES   REMARKS
RAPID CTY ARPT MOSUNNY   71  54  54 N9        30.23S
PIERRE         PTSUNNY   74  55  51 N16       30.12S
CUSTER         CLOUDY    55  51  86 S6        30.31S FOG
ELLSWORTH AFB  MOSUNNY   69  55  59 NW10      30.22F
PHILIP         CLOUDY    73  56  54 NW10      30.17S
PINE RIDGE     PTSUNNY   69  52  54 N8        30.23S HAZE
SPEARFISH      FAIR      64  54  68 W6        30.27F
WINNER         FAIR      76  54  46 N20G25    30.12F HAZE
$$

SDZ004>011-016>023-039-040-062100-
NORTHEAST SOUTH DAKOTA

CITY           SKY/WX    TMP DP  RH WIND       PRES   REMARKS
ABERDEEN       PTSUNNY   72  55  55 N13       30.10S HAZE
WATERTOWN      MOSUNNY   71  55  56 N18G28    30.06R HAZE
BROOKINGS      MOSUNNY   70  57  64 N20G28    30.05S
SISSETON         N/A     71  51  49 N21G28    30.07R
$$

SDZ017-020-022-023-036>040-048>070-062100-
SOUTHEAST SOUTH DAKOTA

CITY           SKY/WX    TMP DP  RH WIND       PRES   REMARKS
SIOUX FALLS    CLOUDY    73  58  59 N18G26    30.02R SMOKE
HURON          MOSUNNY   73  57  57 N20       30.07S HAZE
CHAMBERLAIN    MOSUNNY   74  56  51 N14G23    30.10S
MITCHELL       MOSUNNY   75  59  57 N20G26    30.06S HAZE
YANKTON        SUNNY     75  61  60 N16G24    30.01R
$$

ABBREVIATIONS USED IN REMARKS
   TC - TEMPERATURE IN CELSIUS
  WCI - WIND CHILL INDEX
   HX - HEAT INDEX
  VSB - VISIBILITY



USA.gov is the U.S. government's official web portal to all federal, state and local government web resources and services.